Powrót do katalogu

STARLINK-4257

AktywnyŁącznośćVLEO
NORAD 53184·PAYLOAD·🇺🇸 United States

Wystrzelony Jul 17, 2022 z Cape Canaveral Space Force Station

Loading…

Następne Przeloty (najbliższe 24 godziny)

TLE

ŚwieżeSource: CelesTrak SupGP

Epoka: Sep 15, 2026, 02:29 UTC

1 53184C 22083BE  26258.10395833  .00044355  00000+0  14263-2 0  2587
2 53184  53.1584 343.9655 0001259  95.4243  27.8167 15.31680282    16

Śledź STARLINK-4257 w czasie rzeczywistym z AllMySat

Download on the App Store